This is the latest recevied weather packets stored in our database for station/object W4KBW. If no packets are shown the sender has not sent any weather packets the latest 10 day(s).
| Time | Temp. | Humidity | Pressure | Rain* | Wind** | Luminosity | Snow |
|---|---|---|---|---|---|---|---|
| 1777521745 | 25° C | 100% | 1012.7 hPa | 0 mm | - | - | - |
| 1777521572 | 25° C | 100% | 1012.7 hPa | 0 mm | - | - | - |
| 1777520672 | 25° C | 100% | 1012.7 hPa | 0 mm | - | - | - |
| 1777519772 | 25.56° C | 100% | 1012.6 hPa | 0 mm | - | - | - |
| 1777519095 | 25.56° C | 100% | 1012.4 hPa | 0 mm | - | - | - |
| 1777518872 | 25.56° C | 100% | 1012.4 hPa | 0 mm | - | - | - |
| 1777517972 | 26.11° C | 100% | 1012.2 hPa | 0 mm | - | - | - |
| 1777517042 | 26.11° C | 100% | 1012.2 hPa | 0 mm | - | - | - |
| 1777516397 | 26.67° C | 100% | 1011.8 hPa | 0 mm | - | - | - |
| 1777516142 | 26.67° C | 100% | 1011.8 hPa | 0 mm | - | - | - |
| 1777515445 | 27.22° C | 100% | 1012 hPa | 0 mm | - | - | - |
| 1777515212 | 27.22° C | 100% | 1012 hPa | 0 mm | - | - | - |
| 1777514312 | 27.22° C | 100% | 1011.7 hPa | 0 mm | - | - | - |
| 1777513531 | 27.78° C | 100% | 1011.3 hPa | 0 mm | - | - | - |
| 1777513382 | 27.78° C | 100% | 1011.3 hPa | 0 mm | - | - | - |
| 1777512482 | 28.89° C | 100% | 1011.1 hPa | 0 mm | - | - | - |
| 1777511729 | 29.44° C | 100% | 1011 hPa | 0 mm | - | - | - |
| 1777511552 | 29.44° C | 100% | 1011 hPa | 0 mm | - | - | - |
| 1777510870 | 29.44° C | 100% | 1010.3 hPa | 0 mm | - | - | - |
| 1777510652 | 29.44° C | 100% | 1010.3 hPa | 0 mm | - | - | - |
| 1777510010 | 29.44° C | 100% | 1009.8 hPa | 0 mm | - | - | - |
| 1777509722 | 29.44° C | 100% | 1009.8 hPa | 0 mm | - | - | - |
| 1777508908 | 30° C | 100% | 1009.7 hPa | 0 mm | - | - | - |
| 1777508822 | 30° C | 100% | 1009.7 hPa | 0 mm | - | - | - |
| 1777508007 | 30° C | 100% | 1009.6 hPa | 0 mm | - | - | - |
* Rain latest hour (hover to see other rain measurements)
** Current wind speed in m/s (hover to see current wind gust speed)